[[{"header":{"parameterUnit":"m.s-1","parameterCategory":1,"la1":30.2991,"la2":30.254,"lo1":-89.0895,"lo2":-89.0444,"dy":0.0017,"dx":0.0017,"nx":28,"ny":28,"refTime":"2024-08-26T09:00:00:Z","depth":0,"parameterNumber":2,"parameterNumberName":"U-component_of_WINDS"},"data":[0,0,0,0,0,0,0,0,0,0,0,0,0,0,0,0,0,0,0,0,0,0,0,0,0,0,0,0,0,0,0,0,0,0,0,0,0,0,0,0,0,0,0,0,0,0,0,0,0,0,0,0,0,0,0,0,0,0,-3.8849,-3.885,0,-3.896,-3.8962,-3.8963,-3.8886,-3.8883,-3.888,-3.8876,-3.8988,-3.8994,-3.9,0,0,0,0,0,0,0,0,0,0,0,0,0,-3.8567,-3.8573,-3.8849,-3.885,-3.8851,-3.896,-3.8962,-3.8963,-3.8887,-3.8883,-3.8879,-3.8875,-3.8986,-3.8993,-3.9001,0,0,0,0,0,0,0,0,0,0,0,0,0,-3.8685,-3.8575,-3.8848,-3.8827,-3.8826,-3.896,-3.8962,-3.8964,-3.8888,-3.8883,-3.8878,-3.8873,-3.8984,-3.8993,-3.9002,-3.9163,0,0,-3.903,-3.9034,0,0,0,0,0,0,0,0,-3.8679,-3.8696,-3.8828,-3.8828,-3.8828,-3.8904,-3.8903,-3.903,-3.8889,-3.8864,-3.8876,-3.887,-3.8964,-3.8975,-3.9007,-3.9168,-3.9173,-3.9031,-3.9037,-3.9041,-3.9043,0,0,0,0,0,0,0,-3.8671,-3.869,-3.8893,-3.883,-3.883,-3.8811,-3.8822,-3.8927,-3.8942,-3.8866,-3.8861,-3.8875,-3.8963,-3.8998,-3.9009,-3.9174,-3.9031,-3.9039,-3.9045,-3.9048,-3.9472,-3.9478,0,0,0,0,0,0,-3.8665,-3.8684,-3.8889,-3.8896,-3.8739,-3.882,-3.8832,-3.8885,-3.894,-3.8944,-3.8879,-3.8871,-3.8985,-3.8998,-3.9013,-3.9203,-3.9041,-3.9049,-3.9055,-3.9466,-3.9473,-3.948,0,0,0,0,0,0,-3.8659,-3.8684,-3.8885,-3.8789,-3.8813,-3.883,-3.889,-3.889,-3.8925,-3.8951,-3.8953,-3.8913,-3.8981,-3.9,-3.9126,-3.9206,-3.9054,-3.9062,-3.946,-3.9469,-3.9476,-3.9587,0,0,0,0,0,0,-3.8651,-3.8682,-3.8744,-3.8791,-3.8818,-3.8997,-3.8895,-3.8896,-3.8941,-3.8932,-3.8982,-3.8986,-3.8979,-3.9113,-3.9135,-3.9216,-3.9069,-3.9453,-3.9464,-3.9474,-3.9576,-3.9598,-3.9617,0,0,0,0,0,-3.8641,-3.877,-3.8747,-3.8772,-3.8896,-3.9002,-3.9017,-3.9007,-3.8948,-3.901,-3.9027,-3.8984,-3.9195,-3.9126,-3.9151,-3.9236,-3.9447,-3.9461,-3.9473,-3.9567,-3.9594,-3.9617,0,0,0,0,0,0,-3.873,-3.8776,-3.8751,-3.8899,-3.8947,-3.8989,-3.9066,-3.9036,-3.9101,-3.9089,-3.9073,-3.9085,-3.9217,-3.924,-3.9163,-3.9394,-3.9311,-3.933,-3.9375,-3.94,-3.9421,-3.9411,-3.9077,0,0,0,0,0,-3.8768,-3.8851,-3.8885,-3.9012,-3.9038,-3.9048,-3.9094,-3.9082,-3.9131,-3.9151,-3.9177,-3.9225,-3.9302,-3.9353,-3.9425,-3.958,-3.9589,-3.9651,-3.9672,-3.9688,-3.9703,-3.9786,-3.9813,-3.9522,-3.9521,-3.9521,0,0,-3.8845,-3.888,-3.8933,-3.9031,-3.9067,-3.9153,-3.9066,-3.916,-3.9222,-3.9165,-3.9285,-3.9307,-3.936,-3.9501,-3.9564,-3.9523,-3.9787,-3.9705,-3.9718,-3.9724,-3.9802,-3.983,-3.9854,-3.953,-3.9529,-3.9527,0,0,-3.9028,-3.9064,-3.9173,-3.9211,-3.9267,-3.9274,-3.93,-3.9347,-3.9359,-3.948,-3.9438,-3.9513,-3.9646,-3.9685,-3.9723,-3.9923,-3.9886,-3.9947,-4.0053,-4.0134,-4.0157,-4.0177,-4.0247,-4.0272,-3.9963,-3.9963,-3.9963,0,-3.9116,-3.9243,-3.9232,-3.933,-3.9374,-3.9328,-3.9437,-3.9475,-3.9552,-3.9583,-3.9537,-3.9703,-3.9735,-3.9885,-3.9934,-3.9966,-3.9995,-3.994,-4.0155,-4.0175,-4.0194,-4.026,-4.0286,-3.997,-3.9969,-3.9969,-3.9968,0,-3.9348,-3.9437,-3.9519,-3.9595,-3.9649,-3.9752,-3.9756,-3.9812,-3.9796,-3.9807,-3.9931,-3.9969,-4.0048,-4.0083,-4.0068,-4.0231,-4.0203,-4.0157,-4.0072,-4.0228,-4.029,-4.0316,-3.998,-3.9977,-3.9975,-3.9974,0,0,-3.9587,-3.9658,-3.9688,-3.9722,-3.9781,-3.9849,-3.9951,-4.0029,-4.0076,-4.0132,-4.0215,-4.033,-4.0287,-4.033,-4.0319,-4.0391,-4.0545,-4.0335,-4.0336,-4.0371,-4.0725,-4.0758,-4.0787,-4.0523,-4.0528,-4.0531,-4.072,0,-3.9772,-3.9949,-3.9943,-4.0108,-4.0189,-4.0148,-4.0236,-4.0282,-4.0295,-4.0366,-4.0381,-4.0462,-4.04,-4.0425,-4.0495,-4.0512,-4.0616,-4.0499,-4.0598,-4.0602,-4.0584,-4.082,-4.0855,-4.1031,-4.0744,-4.0748,-4.0751,0,-4.001,-4.0075,-4.0248,-4.0296,-4.033,-4.0409,-4.048,-4.0549,-4.06,-4.0605,-4.0654,-4.0633,-4.0734,-4.065,-4.079,-4.071,-4.0751,-4.0766,-4.0773,-4.0779,-4.0684,-4.0831,-4.1087,-4.1112,-4.079,-4.0786,-4.0784,0,-4.0165,-4.0295,-4.0415,-4.0446,-4.0505,-4.0562,-4.0589,-4.0635,-4.0683,-4.0746,-4.0776,-4.085,-4.0889,-4.0946,-4.0945,-4.0884,-4.1086,-4.1002,-4.1091,-4.1092,-4.1133,-4.113,-4.1397,-4.1165,-4.1164,-4.1164,-4.1163,0,-4.037,-4.0477,-4.0486,-4.0559,-4.0678,-4.0671,-4.0788,-4.0809,-4.0851,-4.0928,-4.0897,-4.0969,-4.0964,-4.1038,-4.1038,-4.1152,-4.1171,-4.1177,-4.1175,-4.1178,-4.1177,-4.1202,-4.1189,-4.1171,-4.1169,-4.1168,-4.1166,0,-4.0561,-4.0572,-4.07,-4.0746,-4.076,-4.0846,-4.0885,-4.0955,-4.0967,-4.1064,-4.1086,-4.1105,-4.1189,-4.1195,-4.1292,-4.1292,-4.1431,-4.1417,-4.1414,-4.141,-4.1499,-4.1489,-4.1789,-4.1827,-4.1572,-4.1575,-4.1577,0,-4.069,-4.0772,-4.0828,-4.0877,-4.0908,-4.0988,-4.1037,-4.1034,-4.1085,-4.1151,-4.1212,-4.1294,-4.1359,-4.1497,-4.1518,-4.1592,-4.1578,-4.1679,-4.1589,-4.159,-4.1577,-4.1571,-4.1578,-4.1695,-4.1697,-4.17,-4.1702,0,-4.0917,-4.0918,-4.099,-4.1065,-4.1124,-4.1182,-4.1236,-4.1278,-4.1281,-4.1341,-4.1428,-4.1479,-4.1579,-4.166,-4.1734,-4.176,-4.1732,-4.173,-4.1754,-4.1757,-4.1751,-4.1753,-4.1458,-4.1722,-4.172,-4.1719,-4.1718,-4.1717,-4.1079,-4.1149,-4.12,-4.1281,-4.1322,-4.1373,-4.1441,-4.1462,-4.1535,-4.1617,-4.1611,-4.1706,-4.1756,-4.1851,-4.1885,-4.1959,-4.1925,-4.196,-4.1969,-4.1977,-4.1985,-4.1742,-4.1973,-4.1972,-4.1971,-4.1971,-4.1971,0,-4.1302,-4.1333,-4.1408,-4.1485,-4.1549,-4.1519,-4.1578,-4.1632,-4.1717,-4.1767,-4.1832,-4.1932,-4.2011,-4.204,-4.2117,-4.2171,-4.2159,-4.2191,-4.2185,-4.2192,-4.2012,-4.1983,-4.2199,-4.2199,-4.2199,-4.2199,-4.2199,-4.2199,-4.1425,-4.1542,-4.155,-4.1687,-4.1717,-4.1811,-4.1847,-4.1894,-4.1934,-4.2047,-4.2113,-4.2132,-4.2173,-4.2253,-4.2324,-4.233,-4.2359,-4.2396,-4.2396,-4.2228,-4.2204,-4.2182,-4.2154,-4.2403,-4.2403,-4.2569,-4.257,-4.2572]},{"header":{"parameterUnit":"m.s-1","parameterCategory":1,"la1":30.2991,"la2":30.254,"lo1":-89.0895,"lo2":-89.0444,"dy":0.0017,"dx":0.0017,"nx":28,"ny":28,"refTime":"2024-08-26T09:00:00:Z","depth":0,"parameterNumber":3,"parameterNumberName":"V-component_of_WINDS"},"data":[0,0,0,0,0,0,0,0,0,0,0,0,0,0,0,0,0,0,0,0,0,0,0,0,0,0,0,0,0,0,0,0,0,0,0,0,0,0,0,0,0,0,0,0,0,0,0,0,0,0,0,0,0,0,0,0,0,0,0.0775,0.0775,0,0.0792,0.0792,0.0792,0.0767,0.0766,0.0765,0.0764,0.0782,0.0784,0.0785,0,0,0,0,0,0,0,0,0,0,0,0,0,0.0724,0.0725,0.0775,0.0775,0.0775,0.0792,0.0792,0.0792,0.0767,0.0766,0.0765,0.0764,0.0782,0.0783,0.0785,0,0,0,0,0,0,0,0,0,0,0,0,0,0.0744,0.0725,0.0775,0.0765,0.0764,0.0792,0.0792,0.0792,0.0767,0.0766,0.0764,0.0763,0.0781,0.0783,0.0785,0.0824,0,0,0.0791,0.0792,0,0,0,0,0,0,0,0,0.0743,0.0746,0.0766,0.0765,0.0765,0.0776,0.078,0.0803,0.0767,0.0766,0.0764,0.0763,0.0781,0.0783,0.0789,0.0825,0.0826,0.0791,0.0793,0.0793,0.0794,0,0,0,0,0,0,0,0.0741,0.0745,0.0782,0.0766,0.0765,0.076,0.0762,0.0785,0.0781,0.0766,0.0764,0.0766,0.0781,0.0787,0.079,0.0826,0.0791,0.0793,0.0794,0.0795,0.0897,0.0898,0,0,0,0,0,0,0.0741,0.0744,0.0781,0.0782,0.075,0.0762,0.0764,0.0774,0.0781,0.078,0.0768,0.0765,0.0785,0.0787,0.079,0.0837,0.0793,0.0795,0.0796,0.0896,0.0897,0.0899,0,0,0,0,0,0,0.074,0.0744,0.078,0.0762,0.0767,0.0764,0.0776,0.0775,0.0781,0.0782,0.0781,0.0775,0.0784,0.0787,0.0816,0.0838,0.0796,0.0798,0.0894,0.0896,0.0898,0.0932,0,0,0,0,0,0,0.0738,0.0744,0.0758,0.0763,0.0768,0.0805,0.0777,0.0776,0.0785,0.0782,0.0789,0.0788,0.0783,0.0814,0.0818,0.084,0.08,0.0892,0.0895,0.0897,0.0929,0.0935,0.094,0,0,0,0,0,0.0737,0.0766,0.0759,0.0763,0.0785,0.0807,0.0809,0.0802,0.0786,0.0801,0.0802,0.0788,0.0835,0.0817,0.0822,0.0844,0.089,0.0894,0.0897,0.0926,0.0934,0.094,0,0,0,0,0,0,0.0764,0.0767,0.0758,0.079,0.0799,0.0802,0.082,0.081,0.0823,0.082,0.0811,0.0813,0.0844,0.0847,0.0827,0.0883,0.086,0.0865,0.088,0.0887,0.0893,0.0892,0.0801,0,0,0,0,0,0.0773,0.079,0.0792,0.082,0.0825,0.0822,0.0831,0.0825,0.0834,0.0837,0.084,0.0849,0.0865,0.0877,0.0892,0.0929,0.0931,0.0947,0.0953,0.0958,0.0962,0.0984,0.0992,0.091,0.091,0.091,0,0,0.0793,0.0797,0.0808,0.0826,0.0832,0.085,0.0825,0.0845,0.086,0.084,0.0868,0.0871,0.088,0.0914,0.0929,0.0917,0.0985,0.0962,0.0966,0.0967,0.0988,0.0996,0.1003,0.0913,0.0912,0.0912,0,0,0.084,0.0844,0.0869,0.0875,0.0884,0.0883,0.0889,0.0895,0.0896,0.0924,0.091,0.0928,0.0956,0.0964,0.0972,0.1025,0.1013,0.103,0.106,0.1082,0.1088,0.1094,0.1114,0.1121,0.1034,0.1034,0.1034,0,0.0864,0.089,0.0883,0.0905,0.0914,0.0898,0.0924,0.093,0.0944,0.0951,0.0938,0.0975,0.0981,0.1017,0.103,0.1037,0.1045,0.1029,0.1088,0.1093,0.1098,0.1118,0.1125,0.1036,0.1036,0.1036,0.1036,0,0.092,0.094,0.0959,0.0973,0.0984,0.1008,0.1005,0.1018,0.1012,0.1012,0.1042,0.1048,0.1065,0.1073,0.1067,0.111,0.1103,0.1089,0.1065,0.1108,0.1126,0.1133,0.1039,0.1038,0.1038,0.1037,0,0,0.0982,0.0994,0.1001,0.1008,0.1018,0.1033,0.1058,0.1075,0.1087,0.1097,0.1118,0.1144,0.1132,0.1141,0.1136,0.1155,0.1199,0.1139,0.1139,0.1151,0.1248,0.1259,0.1268,0.1192,0.1193,0.1194,0.1248,0,0.1029,0.107,0.1065,0.1105,0.1124,0.1111,0.1132,0.1141,0.1143,0.116,0.1162,0.1181,0.1163,0.1168,0.1187,0.119,0.1218,0.1186,0.1212,0.1213,0.121,0.1277,0.1288,0.1338,0.1255,0.1256,0.1257,0,0.1089,0.1103,0.1145,0.1154,0.1162,0.1181,0.1198,0.1214,0.1225,0.1225,0.1237,0.1229,0.1255,0.1231,0.1268,0.1246,0.1257,0.126,0.1262,0.1264,0.1238,0.1282,0.1354,0.1362,0.1268,0.1267,0.1266,0,0.1132,0.1161,0.119,0.1197,0.1208,0.1222,0.1228,0.1238,0.1249,0.1264,0.1272,0.129,0.1299,0.1314,0.1312,0.1295,0.135,0.1326,0.1352,0.1352,0.1364,0.1363,0.144,0.1371,0.137,0.137,0.137,0,0.1185,0.1211,0.121,0.1228,0.1258,0.1253,0.1283,0.1287,0.1296,0.1316,0.1305,0.1324,0.1321,0.134,0.1339,0.1371,0.1375,0.1377,0.1376,0.1378,0.1378,0.1385,0.1381,0.1372,0.1372,0.1371,0.1371,0,0.1237,0.1236,0.1268,0.1277,0.128,0.1302,0.131,0.1328,0.133,0.1355,0.1361,0.1363,0.1386,0.1386,0.1411,0.1411,0.145,0.1445,0.1446,0.1445,0.1472,0.147,0.1556,0.1568,0.149,0.1491,0.1491,0,0.1271,0.1291,0.1303,0.1315,0.1322,0.1342,0.1354,0.1351,0.1364,0.138,0.1397,0.1418,0.1435,0.1472,0.1477,0.1497,0.1493,0.1522,0.1496,0.1498,0.1495,0.1494,0.1497,0.1527,0.1528,0.1529,0.1529,0,0.1332,0.1331,0.1349,0.1367,0.1382,0.1396,0.1409,0.1421,0.1419,0.1435,0.1458,0.1471,0.1498,0.1521,0.1541,0.1547,0.1539,0.1538,0.1545,0.1547,0.1547,0.1549,0.1461,0.1536,0.1535,0.1535,0.1534,0.1534,0.1376,0.1394,0.1406,0.1427,0.1437,0.145,0.1468,0.1473,0.1492,0.1513,0.1511,0.1537,0.155,0.1576,0.1585,0.1607,0.1597,0.1607,0.161,0.1612,0.1616,0.1544,0.161,0.161,0.161,0.161,0.161,0,0.1437,0.1445,0.1464,0.1483,0.15,0.1491,0.1506,0.1521,0.1544,0.1557,0.1575,0.1603,0.1625,0.1632,0.1654,0.167,0.1667,0.1676,0.1675,0.1678,0.1623,0.1615,0.1679,0.1679,0.1679,0.1679,0.1679,0.1679,0.1471,0.1502,0.1504,0.154,0.1548,0.1573,0.1583,0.1596,0.1606,0.1638,0.1657,0.1661,0.1673,0.1696,0.1717,0.1719,0.1728,0.1739,0.1739,0.1688,0.1681,0.1674,0.1667,0.1741,0.1741,0.1792,0.1793,0.1793]}]]